Regional Weather Roundup
Issued by NWS Lake Charles, LA

Home | Current Version | Previous Version | Text Only | Print | Product List | Glossary On
Versions: 1 2 3 4 5 6 7 8 9 10 11 12 13 14 15 16 17 18 19 20 21 22 23 24 25 26 27 28
000
ASUS44 KLCH 180110
RWRLCH
REGIONAL WEATHER ROUNDUP
NATIONAL WEATHER SERVICE LAKE CHARLES LA
800 PM CDT THU AUG 17 2017

Note: "fair" indicates few or no clouds below 12,000 feet with no
significant weather and/or obstructions to visibility.


ACROSS SOUTHEAST TEXAS

CITY           SKY/WX    TMP DP  RH WIND       PRES   REMARKS
BEAUMONT       CLEAR     83  76  79 S6        29.97R
BEAUMONT CITY  FAIR      85  74  68 MISG      29.98R
ORANGE         CLEAR     85  79  81 SW9       29.99S
JASPER           N/A     86  79  78 CALM      30.00R HX 100
$$

ACROSS CENTRAL LOUISIANA

CITY           SKY/WX    TMP DP  RH WIND       PRES   REMARKS
LEESVILLE      CLOUDY    84  78  82 SE3       29.97R
FULLERTON      FAIR      83  79  88 CALM      29.96R
ALEXANDRIA INT CLEAR     83  79  88 CALM      29.97R
ESLER FIELD    CLEAR     81  79  94 CALM      29.99R
DERIDDER       FAIR      86  82  87 SE3       29.99S HX 103
OAKDALE        CLEAR     80  77  91 CALM      29.98S
OPELOUSAS      FAIR      82  77  85 S5        29.98S
$$

ACROSS SOUTHWEST AND SOUTH CENTRAL LOUISIANA

CITY           SKY/WX    TMP DP  RH WIND       PRES   REMARKS
SULPHUR        CLEAR     85  78  79 S9        29.99R
LAKE CHARLES   CLEAR     85  79  82 SW6       29.98R
CHENNAULT INT  CLEAR     84  79  84 S8        29.98R
CAMERON PHI    PTCLDY    86  79  79 SW8       29.98R
DEQUINCY       FAIR      83  74  73 CALM      29.98R
JENNINGS       FAIR      84  77  81 S3        29.98S
LAFAYETTE      PTCLDY    85  78  80 CALM      29.99R
NEW IBERIA     CLEAR     84  76  76 SW8       29.99S
ABBEVILLE      FAIR      82  79  89 S6        30.00R
PATTERSON      CLEAR     83  78  85 SW5       30.00S
SALT POINT       N/A     86  77  74 VRB3      29.98F
$$

SELECTED SITES ACROSS THE REGION

CITY           SKY/WX    TMP DP  RH WIND       PRES   REMARKS
HOUSTON BUSH   PTCLDY    90  72  55 S8        29.96R
HOUSTON HOBBY  PTCLDY    89  71  55 S8        29.96R
GALVESTON      PTCLDY    86  80  82 S10       29.98S HX 101
COLLEGE STAT   CLEAR     92  72  51 S10       29.95R
CONROE         PTCLDY    88  75  65 SE6       29.96R
HUNTSVILLE     CLEAR     90  68  48 S5        29.96R
LUFKIN         CLEAR     85  76  74 E3        29.97R
SHREVEPORT     MOCLDY    83  73  72 SE5       29.98R
MONROE         CLEAR     81  71  71 N7        29.99R
NATCHEZ MS     CLEAR     81  76  84 CALM      30.01R
BATON ROUGE    CLEAR     85  72  65 S3        29.98S
N.O. INTL ARPT MOCLDY    83  76  79 S8        29.99F
SLIDELL        CLOUDY    86  76  71 S5        29.99S
$$

MARINE REPORTS

STATION/POSITION TIME  SKY/WX   TEMP    WIND        PRES    VSBY
                                AIR SEA DIR/SP/G
                 (UTC)          (F)     (DEG/KT/KT) (MB)    (MI)
BUOY 30 S HIGH I 2350            86 88  190/ 10/ 12 1015.2
WVE H/P(F/S)=  3/ 7

SEA RIM ST PARK  0000            86     200/ 11/ 15 1015.3F
PORT ARTHUR      0036            85 88  200/  7/ 10 1015.3R
SABINE PASS N    0036            86 90  200/  8/ 11 1016.6R
TEXAS POINT      NOT AVBL
CALCASIEU PASS   0048               88  230/ 10/ 12 1014.7R
LK CHARLES BEACH 0036            87 87              1015.5R
MARSH ISLAND     0000            87                   N/A
FRESH WATER LOCK 0036            85 89  190/  7/ 10 1015.8R
AMERADA PASS     0036            85 88     CALM     1015.8F
$$




USA.gov is the U.S. government's official web portal to all federal, state and local government web resources and services.